EHI
21 20 18 15 10 8 8 7 3 1 1 1 3 7 11 8 5 9 14 8 1 0 0 0 0 0 0 0 0 0 0 0 0 0 0 0 0 0
23 21 19 16 12 9 8 7 4 3 2 1 2 6 8 5 3 8 12 7 1 0 0 0 0 0 0 0 0 0 0 0 0 0 0 0 0 0
22 20 17 15 13 9 7 6 6 6 4 1 1 4 6 5 4 5 6 5 2 0 0 0 0 0 0 0 0 0 0 0 0 0 0 0 0 0
19 18 15 14 13 10 7 6 6 7 5 2 1 2 5 6 6 4 2 2 2 0 0 0 0 0 0 0 0 0 0 0 0 0 0 0 0 0
20 18 15 14 14 12 9 7 6 5 3 1 0 1 2 4 5 3 1 1 1 0 0 0 0 0 0 0 0 0 0 0 0 0 0 0 0 0
18 16 14 13 13 11 9 6 4 3 1 0 0 0 1 3 3 2 0 0 0 1 1 1 0 0 0 0 0 0 0 0 0 0 0 0 0 0
13 12 11 10 9 7 5 4 3 2 0 0 0 0 1 2 2 1 0 0 0 1 2 2 1 0 0 0 0 0 0 0 0 0 0 0 0 0
9 9 8 6 5 3 2 2 2 1 0 0 0 0 0 1 1 0 0 0 0 1 2 1 1 1 1 0 0 0 0 0 0 0 0 0 0 0
9 8 7 4 2 2 1 1 1 0 0 0 1 1 1 1 0 0 0 0 0 0 0 0 1 2 2 0 0 0 0 0 0 0 0 0 0 0
8 8 7 5 2 2 2 1 1 1 0 0 1 1 1 0 0 0 0 0 0 0 0 1 1 1 1 0 0 0 0 0 0 0 0 0 0 0
7 7 6 5 2 1 1 1 1 1 0 0 1 1 0 0 0 0 0 0 0 0 1 2 2 1 0 0 0 0 0 0 0 0 0 0 0 0
6 5 4 3 1 0 0 0 0 0 0 0 0 0 0 0 0 0 0 0 0 0 1 2 2 1 0 0 0 0 0 0 0 0 0 0 0 0
4 3 2 1 0 0 0 0 0 0 0 0 0 0 0 0 0 0 0 0 0 0 0 1 1 1 0 0 0 0 0 0 0 0 0 0 0 0
2 1 1 0 0 0 0 0 0 0 0 0 0 0 0 0 1 0 0 0 0 0 0 0 0 0 0 0 0 0 0 0 0 0 0 0 0 0
1 0 0 0 0 0 0 0 0 0 0 0 0 0 0 0 0 0 0 0 0 1 1 1 1 0 0 0 0 0 0 0 0 0 0 0 0 0
0 0 0 0 0 0 0 0 0 0 0 0 0 0 0 0 0 0 0 0 0 1 2 2 1 0 0 0 0 0 0 0 0 0 0 0 0 0
0 0 0 0 0 0 0 0 0 0 0 0 0 0 0 0 0 0 0 0 0 1 1 1 0 0 0 0 0 0 0 0 0 0 0 0 0 0
0 0 0 0 0 0 0 0 0 0 0 0 0 0 0 0 0 0 0 0 0 0 0 0 0 0 0 0 0 0 0 0 0 0 0 0 0 0
0 0 0 0 0 0 0 0 0 0 0 0 0 0 0 0 0 0 0 0 0 0 0 0 0 0 0 0 0 0 0 0 0 0 0 0 0 0
0 0 0 0 0 0 0 0 0 0 0 0 0 0 0 0 0 0 0 0 0 0 0 0 0 0 0 0 0 0 0 0 0 0 0 0 0 0
0 0 0 0 0 0 0 0 0 0 0 0 0 0 0 0 0 0 0 0 0 0 0 0 0 0 0 0 0 0 0 0 0 0 0 0 0 0
0 0 0 0 0 0 0 0 0 0 0 0 0 0 0 0 0 0 0 0 0 0 0 0 0 0 0 0 0 0 0 0 0 0 0 0 0 0
0 0 0 0 0 0 0 0 0 0 0 0 0 0 0 0 0 0 0 0 0 0 0 0 0 0 0 0 0 0 0 0 0 0 0 0 0 0
Wind_Speed
5 5 5 4 4 4 3 3 3 4 4 3 2 1 2 1 4 5 5 10 12 12 12 12 11 11 11 11 11 10 10 10 10 11 11 12 12 12
4 4 4 4 3 3 3 3 3 4 3 2 2 2 2 2 2 3 3 7 10 10 11 11 11 11 11 11 11 10 10 10 10 10 10 11 11 11
4 4 4 4 3 3 3 3 3 3 4 4 2 2 2 1 1 2 2 3 5 9 10 10 10 10 10 10 11 11 10 10 10 10 10 10 10 10
3 3 3 3 3 3 3 3 3 3 3 4 3 2 2 2 2 3 3 3 3 7 10 10 10 10 10 9 9 9 9 9 9 9 9 9 9 10
2 2 2 3 3 2 3 3 3 3 2 3 3 2 2 2 2 2 3 2 3 4 7 8 9 9 9 9 9 9 8 8 8 9 9 9 9 9
2 2 3 3 3 3 3 3 2 3 2 2 2 2 2 2 1 2 2 2 3 4 2 3 6 8 9 9 9 9 9 8 8 8 9 9 9 9
2 3 3 5 5 4 3 3 3 2 1 1 2 1 1 2 2 2 2 2 3 2 1 1 2 3 4 5 7 8 8 8 8 8 8 9 9 10
3 3 2 4 4 4 5 5 5 3 2 1 1 2 2 2 2 2 2 2 3 2 1 2 1 1 1 1 3 6 7 8 8 8 7 7 8 9
4 4 3 4 5 3 3 4 5 6 4 1 2 3 3 3 3 3 3 3 2 3 2 2 1 1 1 1 2 2 3 5 6 7 7 7 7 8
5 5 5 6 6 5 3 4 5 6 5 4 3 3 3 3 3 2 2 3 2 2 2 2 2 2 2 1 2 2 2 3 4 5 5 6 6 7
5 6 6 5 8 7 5 5 4 4 5 6 5 5 6 7 5 3 3 3 3 2 3 1 2 2 2 1 0 1 2 3 3 3 4 5 5 5
4 5 9 8 8 8 5 4 4 3 3 4 3 3 4 5 6 4 3 3 3 2 4 3 2 2 2 1 1 1 1 2 3 3 3 3 3 2
4 4 5 8 8 8 6 4 3 3 2 2 3 3 3 3 4 3 3 2 2 1 3 3 2 2 2 2 2 1 1 1 1 2 2 2 3 2
4 3 4 6 6 6 5 6 6 4 2 3 3 3 3 3 3 3 2 2 1 0 2 3 2 3 3 3 2 2 1 1 1 1 1 1 2 3
3 4 4 4 4 4 6 6 5 4 4 4 4 4 3 3 3 3 3 2 2 2 3 2 2 3 3 3 3 3 2 2 2 2 2 2 1 1
3 3 3 3 4 5 6 6 5 5 4 4 4 4 3 3 4 4 3 3 3 3 3 3 3 3 3 3 3 3 2 2 3 2 2 2 2 2
2 2 3 4 5 5 4 4 5 5 5 4 4 4 4 4 4 3 3 3 4 4 4 3 3 2 2 3 3 3 3 3 2 2 2 2 2 2
4 4 5 5 5 5 5 5 5 5 5 4 4 4 4 4 3 3 3 3 4 4 4 4 4 4 3 2 4 4 3 3 3 3 3 2 3 2
5 5 5 5 5 5 4 4 4 4 4 4 4 4 4 4 4 3 3 3 3 3 3 3 3 4 5 5 3 3 3 3 3 3 3 2 3 3
5 5 5 5 5 5 5 5 5 4 4 4 4 4 4 4 4 4 4 4 4 4 4 3 3 3 4 4 3 3 3 3 3 3 3 3 2 2
5 5 5 5 5 5 4 4 4 4 5 4 4 5 5 4 4 4 4 6 4 4 4 4 3 5 4 3 3 2 2 3 3 2 3 3 3 2
5 5 4 4 4 4 4 4 4 4 5 5 5 5 5 5 5 5 4 4 4 4 4 4 4 4 3 4 4 4 3 3 3 3 3 2 2 2
5 4 4 5 5 4 4 5 6 6 5 5 5 5 6 5 4 4 5 5 5 5 5 5 5 4 4 4 4 3 4 4 3 3 3 3 3 3
Wind_Direction
246 249 251 260 262 259 253 232 233 256 263 260 260 244 248 219 188 192 189 194 201 205 210 214 218 221 223 224 225 226 229 230 230 232 234 237 240 241
250 254 251 256 259 257 258 248 229 228 252 264 272 271 264 255 214 223 209 190 202 207 211 214 216 217 217 218 221 223 225 226 227 229 231 234 236 237
258 259 260 260 261 264 259 255 245 227 244 261 262 277 267 264 244 251 232 199 201 208 210 214 216 217 218 218 220 221 222 223 225 229 230 231 232 233
274 283 291 289 275 271 270 264 259 245 237 257 271 273 280 266 242 249 259 241 229 210 209 214 216 216 215 215 218 220 222 223 224 226 230 234 234 234
297 309 318 324 317 297 283 283 278 274 254 249 268 278 283 293 290 282 284 283 272 236 208 211 214 213 214 215 218 220 222 222 224 224 227 231 233 234
1 14 15 11 353 334 316 322 309 301 293 279 277 284 282 291 303 298 302 298 280 273 263 205 203 210 215 215 216 217 218 219 221 225 227 229 231 233
9 20 37 38 31 15 2 357 344 335 335 330 307 308 317 330 322 298 295 294 280 267 264 250 208 210 218 220 222 221 220 220 220 223 227 231 233 235
17 11 29 39 31 42 45 40 32 20 2 355 342 327 327 326 328 323 316 316 301 328 319 290 277 230 212 206 205 205 215 221 224 227 230 235 240 242
23 17 21 16 23 34 54 56 42 35 29 6 358 349 347 352 347 340 338 326 311 318 326 315 350 350 320 40 120 166 204 221 227 230 231 235 240 246
39 31 31 23 17 13 42 53 49 40 33 37 32 13 13 360 353 334 315 316 314 352 5 328 341 334 336 53 127 138 175 223 233 235 235 239 244 249
47 42 37 34 15 24 46 51 49 44 47 52 56 47 37 27 18 10 0 357 342 349 3 339 334 325 308 298 328 217 244 254 254 250 249 252 253 253
55 51 47 41 29 31 40 43 38 20 23 30 37 27 30 29 27 21 6 2 351 347 356 349 340 342 322 325 352 335 300 291 281 274 275 283 279 263
57 49 42 42 40 35 36 33 13 358 4 26 39 33 32 30 26 22 17 11 6 340 344 346 337 335 317 311 311 312 324 333 317 293 277 287 289 263
60 56 55 46 45 43 39 24 15 17 18 24 28 24 21 18 12 6 4 0 357 311 340 349 341 336 325 315 316 324 327 344 341 335 326 301 286 286
60 60 53 42 43 52 48 37 28 21 21 26 23 15 7 2 359 356 356 348 347 4 12 357 352 338 330 325 329 333 333 339 359 5 1 350 314 291
55 74 65 39 37 45 40 37 34 28 23 22 18 10 5 11 13 6 360 354 0 4 6 6 360 353 346 337 338 340 346 346 354 360 356 342 333 328
14 53 53 46 44 40 42 40 35 22 18 16 19 14 11 12 9 6 360 356 358 356 355 354 351 356 25 358 355 354 350 350 353 349 339 332 337 345
50 54 48 44 42 36 33 32 33 25 9 13 16 10 4 2 2 360 1 360 355 354 358 357 358 354 348 24 22 358 349 342 341 338 334 330 330 342
59 54 47 41 36 32 28 28 28 21 7 11 12 4 357 357 357 353 359 353 345 346 350 354 2 359 347 340 344 349 332 328 336 340 337 327 317 326
51 51 46 40 34 25 21 21 20 15 6 4 10 360 351 351 353 350 353 350 342 344 349 1 5 355 335 320 313 316 329 335 335 331 330 326 319 322
49 46 41 38 35 26 14 11 14 12 4 1 2 351 344 345 349 346 350 350 346 348 351 349 339 327 308 311 315 325 326 321 312 307 316 320 320 322
43 42 37 35 30 19 13 7 8 8 2 1 356 346 342 345 347 347 349 349 346 347 343 334 334 333 327 325 321 324 333 333 336 345 339 314 301 314
45 37 34 31 23 12 11 11 12 7 2 358 349 341 340 341 342 346 347 349 349 348 344 339 336 331 325 318 321 329 335 337 334 340 339 329 297 283